Tracking 25949 objects as of 8-Aug-2022
HD Live streaming from Space Station
objects crossing your sky now

COSMOS 1275 DEB

Track COSMOS 1275 DEB now!
10-day predictions


NORAD ID: 42177
Int'l Code: 1981-053SR
Perigee: 721.8 km
Apogee: 770.1 km
Inclination: 82.7 °
Period: 99.6 minutes
Semi major axis: 7116 km
RCS: Unknown
Launch date: June 4, 1981
Source: Commonwealth of Independent States (former USSR) (CIS)
Launch site: PLESETSK MISSILE AND SPACE COMPLEX (PKMTR)

Note: This is SATELLITE DEBRIS
aabbcc
Your satellite tracking list
Your tracking list is empty




NASA's NSSDC Master Catalog

Two Line Element Set (TLE):
1 42177U 81053SR  22209.18576340  .00003912  00000-0  10862-2 0  9991
2 42177  82.7147  21.0323 0033906  97.8874 262.6172 14.45988602905914
Source of the keplerian elements: AFSPC